Holland, MI

4:42 PM EDT on August 19, 2017 (GMT -0400)
Tulip City

Weather History for KBIV - July, 2013

Change the Weather History Date:

Friday, July 19, 2013

  Actual Average Record
Temperature  
Mean Temperature 89 °F 73 °F  
Max Temperature 97 °F 82 °F 97 °F (2013)
Min Temperature 81 °F 63 °F 42 °F (1951)
Degree Days  
Heating Degree Days 0 0  
Month to date heating degree days 0 0  
Since 1 June heating degree days 34 48  
Since 1 July heating degree days 0 0  
Cooling Degree Days 24 8  
Month to date cooling degree days 222 146  
Year to date cooling degree days 476 334  
Since 1 June cooling degree days 386 292  
Growing Degree Days 39 (Base 50)    
Moisture  
Dew Point 72 °F    
Average Humidity 58    
Maximum Humidity 74    
Minimum Humidity 42    
Precipitation  
Precipitation 0.00 in 0.09 in 1.24 in (1969)
Month to date precipitation 0.77 1.78  
Year to date precipitation 23.93 18.59  
Sea Level Pressure  
Sea Level Pressure 29.81 in    
Wind  
Wind Speed 17 mph (SW)    
Max Wind Speed 30 mph    
Max Gust Speed 40 mph    
Visibility 10 miles    
Events Thunderstorm    
T = Trace of Precipitation, MM = Missing Value Source: NWS Daily Summary

Daily Weather History Graph

Daily Weather History Graph

Search for Another Location

Airport or City:

Trip Planner

Search our weather history database for the weather conditions in past years. The results will help you decide how hot, cold, wet, or windy it might be!

Date:

Astronomy

Jul. 19, 2013 Rise Set
Actual Time 6:23 AM EDT 9:17 PM EDT
Civil Twilight 5:50 AM EDT 9:50 PM EDT
Nautical Twilight 5:07 AM EDT 10:33 PM EDT
Astronomical Twilight 4:17 AM EDT 11:22 PM EDT
Moon 6:19 PM EDT 3:04 AM EDT
Length of Visible Light 16h 00m
Length of Day
14h 54m
Waxing Gibbous, 86% of the Moon is Illuminated
Jul 19
Waxing Gibbous
Jul 22
Full
Jul 29
Last Quarter
Aug 6
New
Aug 14
First Quarter

Hourly Weather History & Observations

Time (EDT) Temp. Heat Index Dew Point Humidity Pressure Visibility Wind Dir Wind Speed Gust Speed Precip Events Conditions
12:53 AM 84.9 °F 90.7 °F 72.0 °F 65% 29.94 in 10.0 mi SW 8.1 mph - N/A   Clear
1:53 AM 84.0 °F 91.2 °F 73.9 °F 72% 29.93 in 10.0 mi SW 12.7 mph - N/A   Clear
2:53 AM 84.0 °F 91.2 °F 73.9 °F 72% 29.91 in 10.0 mi SW 13.8 mph - N/A   Clear
3:53 AM 84.0 °F 91.2 °F 73.9 °F 72% 29.89 in 10.0 mi SW 15.0 mph - N/A   Clear
4:53 AM 82.9 °F 89.4 °F 73.9 °F 74% 29.87 in 10.0 mi SW 15.0 mph 24.2 mph N/A   Clear
5:53 AM 82.9 °F 88.8 °F 73.0 °F 72% 29.86 in 10.0 mi SW 15.0 mph 23.0 mph N/A   Clear
6:53 AM 82.9 °F 88.0 °F 72.0 °F 69% 29.86 in 10.0 mi SW 16.1 mph 25.3 mph N/A   Clear
7:53 AM 84.0 °F 89.6 °F 72.0 °F 67% 29.86 in 10.0 mi SW 19.6 mph 26.5 mph N/A   Clear
8:53 AM 86.0 °F 92.2 °F 72.0 °F 63% 29.86 in 10.0 mi SW 17.3 mph 25.3 mph N/A   Clear
9:53 AM 86.0 °F 92.2 °F 72.0 °F 63% 29.87 in 10.0 mi SW 21.9 mph 29.9 mph N/A   Mostly Cloudy
10:53 AM 88.0 °F 94.7 °F 72.0 °F 59% 29.85 in 10.0 mi SW 19.6 mph 33.4 mph N/A   Mostly Cloudy
11:53 AM 91.0 °F 99.3 °F 73.0 °F 55% 29.84 in 10.0 mi SW 23.0 mph 29.9 mph N/A   Partly Cloudy
12:53 PM 90.0 °F 96.9 °F 72.0 °F 55% 29.81 in 10.0 mi SW 23.0 mph 33.4 mph N/A   Clear
1:53 PM 95.0 °F 102.5 °F 71.1 °F 46% 29.79 in 10.0 mi SW 23.0 mph 34.5 mph N/A   Partly Cloudy
2:53 PM 96.1 °F 102.9 °F 70.0 °F 43% 29.77 in 10.0 mi SW 25.3 mph 32.2 mph N/A   Scattered Clouds
3:42 PM 93.2 °F 98.8 °F 69.8 °F 46% 29.77 in 10.0 mi SW 19.6 mph 29.9 mph N/A Thunderstorm Mostly Cloudy
3:53 PM 95.0 °F 100.7 °F 69.1 °F 43% 29.75 in 10.0 mi SW 24.2 mph 32.2 mph N/A Thunderstorm Scattered Clouds
4:00 PM 96.8 °F 103.1 °F 69.8 °F 41% 29.77 in 10.0 mi SW 17.3 mph 32.2 mph N/A   Partly Cloudy
4:53 PM 91.9 °F 97.4 °F 70.0 °F 48% 29.75 in 10.0 mi WSW 18.4 mph 27.6 mph N/A   Clear
5:53 PM 91.0 °F 96.6 °F 70.0 °F 50% 29.75 in 10.0 mi WSW 19.6 mph 28.8 mph N/A   Clear
6:53 PM 89.1 °F 95.0 °F 71.1 °F 55% 29.73 in 10.0 mi WSW 18.4 mph 24.2 mph N/A   Clear
7:53 PM 87.1 °F 92.0 °F 70.0 °F 57% 29.74 in 10.0 mi WSW 16.1 mph 20.7 mph N/A   Clear
8:53 PM 84.9 °F 90.1 °F 71.1 °F 63% 29.74 in 10.0 mi West 8.1 mph - N/A   Mostly Cloudy
9:36 PM 84.2 °F 89.6 °F 71.6 °F 66% 29.75 in 10.0 mi West 10.4 mph - N/A Thunderstorm Partly Cloudy
9:53 PM 82.9 °F 87.5 °F 71.1 °F 67% 29.73 in 10.0 mi West 9.2 mph - N/A Thunderstorm Mostly Cloudy
10:08 PM 84.2 °F 89.6 °F 71.6 °F 66% 29.75 in 10.0 mi West 9.2 mph - N/A   Mostly Cloudy
10:53 PM 82.9 °F 88.0 °F 72.0 °F 69% 29.75 in 10.0 mi WSW 12.7 mph 20.7 mph N/A   Overcast
11:53 PM 82.9 °F 86.5 °F 69.1 °F 63% 29.75 in 10.0 mi WNW 6.9 mph - N/A   Clear